Location: Unspecified
(0.0000°N, 0.0000°E)
Time: 02:08:04
(UTC+00:00)

A-11 Canister half - All Passes

Search period start: 19 January 2021 00:00
Search period end: 29 January 2021 00:00
Orbit: 1517 x 1683 km, 47.2° (Epoch: 18 January)

Date Brightness Start Highest point End Pass type
(mag) Time Alt. Az. Time Alt. Az. Time Alt. Az.
19 Jan - 05:44:02 10° NNW 05:53:06 49° NE 06:02:29 10° ESE visible
19 Jan - 07:49:20 10° WNW 07:57:55 36° SW 08:06:50 10° SSE daylight
19 Jan - 16:32:49 10° S 16:39:45 21° SE 16:46:29 10° E daylight
19 Jan - 18:34:59 10° SW 18:44:52 81° NW 18:54:21 10° NE visible
19 Jan - 20:45:08 10° WNW 20:49:55 15° NW 20:54:39 10° NNW visible
20 Jan - 05:21:18 10° NNW 05:30:12 45° NE 05:39:22 10° ESE visible
20 Jan - 07:26:13 10° WNW 07:34:58 40° SW 07:44:03 10° SSE daylight
20 Jan - 16:10:17 10° S 16:16:45 19° SE 16:23:03 10° E daylight
20 Jan - 18:12:01 10° SW 18:21:57 87° NW 18:31:29 10° NE daylight
20 Jan - 20:21:26 10° W 20:26:56 17° NW 20:32:23 10° N visible
21 Jan - 04:58:34 10° NNW 05:07:17 41° NE 05:16:14 10° ESE visible
21 Jan - 07:03:08 10° WNW 07:12:02 43° SW 07:21:17 10° SSE daylight
21 Jan - 15:47:48 10° S 15:53:45 17° SE 15:59:34 10° E daylight
21 Jan - 17:49:04 10° SW 17:59:02 86° SE 18:08:36 10° NE daylight
21 Jan - 19:57:51 10° W 20:03:58 18° NW 20:10:00 10° N visible
22 Jan - 04:35:52 10° NNW 04:44:21 37° NE 04:53:04 10° ESE visible
22 Jan - 06:40:05 10° WNW 06:49:05 47° SW 06:58:28 10° SSE daylight
22 Jan - 15:25:24 10° SSE 15:30:44 15° SE 15:35:57 10° ESE daylight
22 Jan - 17:26:09 10° SW 17:36:08 80° SE 17:45:42 10° NE daylight
22 Jan - 19:34:21 10° W 19:41:00 21° NW 19:47:34 10° N visible
23 Jan - 04:13:11 10° NNW 04:21:26 34° NE 04:29:53 10° ESE visible
23 Jan - 06:17:02 10° WNW 06:26:10 51° SW 06:35:39 10° SSE daylight
23 Jan - 15:03:07 10° SSE 15:07:43 14° SE 15:12:14 10° ESE daylight
23 Jan - 17:03:14 10° SSW 17:13:12 74° SE 17:22:46 10° NE daylight
23 Jan - 19:10:55 10° W 19:18:03 23° NW 19:25:03 10° N visible
24 Jan - 03:50:32 10° N 03:58:30 31° NE 04:06:40 10° ESE visible
24 Jan - 05:54:02 10° NW 06:03:14 56° SW 06:12:50 10° SSE daylight
24 Jan - 14:41:02 10° SSE 14:44:40 12° SE 14:48:16 10° ESE daylight
24 Jan - 16:40:21 10° SSW 16:50:17 69° SE 16:59:49 10° NE daylight
24 Jan - 18:47:33 10° W 18:55:06 25° NW 19:02:29 10° N visible
25 Jan - 03:27:54 10° N 03:35:35 28° NE 03:43:25 10° ESE visible
25 Jan - 05:31:03 10° NW 05:40:19 61° SW 05:49:58 10° SSE visible
25 Jan - 14:19:22 10° SSE 14:21:37 11° SE 14:23:52 10° ESE daylight
25 Jan - 16:17:27 10° SSW 16:27:21 63° SE 16:36:52 10° NE daylight
25 Jan - 18:24:14 10° WSW 18:32:09 28° NW 18:39:54 10° N visible
26 Jan - 03:05:18 10° N 03:12:39 26° NE 03:20:07 10° E visible
26 Jan - 05:08:05 10° NW 05:17:24 66° SW 05:27:07 10° SSE visible
26 Jan - 07:20:21 10° WSW 07:23:01 11° SW 07:25:42 10° SSW daylight
26 Jan - 15:54:36 10° SSW 16:04:25 58° SE 16:13:52 10° NE daylight
26 Jan - 18:00:56 10° WSW 18:09:13 30° NW 18:17:16 10° N daylight
27 Jan - 02:42:44 10° N 02:49:42 23° NE 02:56:46 10° E visible
27 Jan - 04:45:08 10° NW 04:54:29 71° SW 05:04:13 10° SSE visible
27 Jan - 06:56:10 10° WSW 06:59:59 13° SW 07:03:51 10° SSW daylight
27 Jan - 15:31:46 10° SSW 15:41:29 53° SE 15:50:52 10° NE daylight
27 Jan - 17:37:43 10° WSW 17:46:17 33° NW 17:54:37 10° NNE daylight
28 Jan - 02:20:13 10° N 02:26:45 21° NE 02:33:23 10° E visible
28 Jan - 04:22:13 10° NW 04:31:35 77° SW 04:41:19 10° SE visible
28 Jan - 06:32:20 10° WSW 06:36:57 14° SW 06:41:41 10° SSW daylight
28 Jan - 15:08:55 10° SSW 15:18:33 49° SE 15:27:50 10° ENE daylight
28 Jan - 17:14:30 10° WSW 17:23:21 37° NW 17:31:57 10° NNE daylight
